Printer-friendly version
Follow the MPC on Twitter Follow the MPC on Facebook The MPC blog
Minor Planet Center

MPEC 2000-R58 : 2000 GV147

The following Minor Planet Electronic Circular may be linked-to from your own Web pages, but must not otherwise be redistributed electronically.

A form allowing access to any MPEC is at the bottom of this page.


Read MPEC 2000-R57 Read MPEC 2000-R59


M.P.E.C. 2000-R58                                Issued 2000 Sept. 14, 23:33 UT

     The Minor Planet Electronic Circulars contain information on unusual
         minor planets and routine data on comets.  They are published
   on behalf of Commission 20 of the International Astronomical Union by the
          Minor Planet Center, Smithsonian Astrophysical Observatory,
                          Cambridge, MA 02138, U.S.A.

             Prepared using the Tamkin Foundation Computer Network

                              MPC@CFA.HARVARD.EDU
          URL http://cfa-www.harvard.edu/iau/mpc.html  ISSN 1523-6714

                                  2000 GV147

                           Revision to MPEC 2000-H38

Observations:
     K00GE7V 2 1993 04 15.23542 12 18 45.79 +27 20 22.6                      261
     K00GE7V 2 1993 04 15.28403 12 18 39.23 +27 20 35.5                      261

Observer details:
261 Palomar Mountain-DSS.  Observers C. Brewer, J. Mueller.  Trail located and
    measured by ANEOPP (A. Boattini, G. D'Abramo, M. Tombelli, G. Forti).
    1.2-m Schmidt.

First and last observations above in comparison with prediction:
Residuals in seconds of arc (or two decimals in degrees), reference and Delta-T
930415 261 0.05+ 0.01-    930415 261 0.05+ 0.01-    MPO  3933   -0.038 day

Orbital elements:
2000 GV147                                                           PHA 0.010
Epoch 2000 Sept. 13.0 TT = JDT 2451800.5                Williams
M  36.59127              (2000.0)            P               Q
n   0.42694411     Peri.  215.76139     +0.24276123     +0.95485225
a   1.7467149      Node    68.83619     -0.84188664     +0.29507360
e   0.4558462      Incl.   10.58117     -0.48196875     -0.03447819
P   2.31           H   19.4           G   0.15           U   2
Residuals in seconds of arc
930415 261  1.3-  0.6+    000424 402  1.4+  1.6-    000427 704  1.7+  0.3+
930415 261  1.3+  0.4-    000424 402  1.3+  1.8-    000427 704  2.1+  0.7+
000414 704  0.3+  0.5+    000424 402  0.3-  0.3-    000427 704  0.4-  0.3+
000414 704  0.6+  0.7+    000424 611  0.1+  0.5+    000428 118  0.2+  0.2-
000414 704  0.0   0.9+    000425 611  0.6-  0.3-    000428 118  0.8+  0.3+
000414 704  0.1+  0.0     000425 670  2.6-  2.1+    000428 118  1.1-  0.2-
000414 704  0.3-  0.5+    000425 670  0.6+  0.1-    000428 860  0.5-  0.8+
000415 673 (3.5+  0.4-)   000425 670  1.0-  0.1-    000428 860  2.7+  2.3-
000415 673  2.4+  0.1-    000425 587  0.0   2.0-    000428 704  0.1-  0.5+
000415 673  0.7-  0.3+    000425 587  2.6-  0.3-    000428 704  0.2+  2.5+
000417 557  0.5+  0.3-    000426 046  0.0   0.5+    000428 704  1.1+  2.1+
000417 557  0.4-  0.2-    000426 046  0.4-  0.3+    000502 860  1.2-  0.5-
000417 557  0.5-  0.0     000426 046  0.3-  0.4+    000502 860  0.3+  0.1-
000417 557  0.0   0.4+    000426 046  0.1-  0.3-    000502 860  0.7+  0.3+
000421 046  1.4+  0.9+    000426 611  0.5+  0.4-    000502 860  0.8+  0.5+
000421 046  0.4-  1.3+    000426 611  0.6+  0.0     000503 118  0.9-  0.3-
000421 046  2.7-  0.2+    000426 611  0.7-  0.1+    000503 118  0.8-  0.0
000422 540  1.2-  0.6+    000426 704  0.2-  1.0-    000503 046  0.2-  0.2-
000422 540  0.2+  0.0     000426 704  0.6-  0.3-    000503 046  0.2+  0.7+
000422 540  0.2-  0.8+    000426 704  0.2-  0.8+    000503 046  0.8-  1.5+
000422 540  0.0   0.3+    000426 704  0.2-  0.2-    000503 046  0.7-  0.5+
000423 557  0.2-  0.5-    000426 704  0.6-  1.5-    000507 118  0.1-  0.5+
000423 557  0.8+  0.2-    000426 670 (3.1-  0.2-)   000507 118  0.0   0.0
000423 557  1.0-  0.1-    000426 670  0.7+  2.5-    000512 670  1.1+  0.2+
000423 557  1.1-  0.3-    000427 046  0.7-  0.1+    000512 670  0.7+  0.1+
000423 461  0.6-  0.8+    000427 046  0.1-  0.0     000612 413  0.2-  0.3-
000423 461  0.1-  0.3-    000427 046  0.2-  0.0     000612 413  0.1+  0.7-
000423 461  0.3-  0.4-    000427 046  0.3-  0.0     000612 413  0.1+  0.2-
000424 118  0.6-  1.2+    000427 118  0.1-  0.2-    000613 413  0.1-  0.1+
000424 118  0.7+  0.9+    000427 118  0.1-  0.1-    000613 413  0.2+  0.2+
000424 118  0.7+  1.7+    000427 118  0.3-  0.8-    000706 413  0.6-  0.0
000424 860  2.6+  2.3-    000427 734  1.0-  0.6-    000706 413  0.8-  0.1+
000424 860 (3.1+  0.4-)   000427 734  0.3+  1.4-    000706 413  0.5-  0.1+
000424 860  0.6+  1.3-    000427 734  0.3-  2.9-    000720 413  0.1-  0.3-
000424 860  0.5+  0.4-    000427 704  0.1-  0.4-    000720 413  0.4-  0.1-
000424 658  0.0   0.4+    000427 704  0.6-  0.1+    000831 413  0.1-  0.4+
000424 658  1.7-  0.9+    000427 704  0.0   0.2+    000831 413  0.1+  0.3+
000424 658  0.4-  0.5+    000427 704  0.1-  0.6+    000902 413  0.2+  0.6+
000424 402  1.1+  0.2+    000427 704  2.1+  0.3-    000902 413  0.1-  0.2+
000424 402  0.9-  0.6+    000427 704  0.6-  0.3-

Ephemeris:
2000 GV147               a,e,i = 1.75, 0.46, 11                  q = 0.9505
Date    TT    R. A. (2000) Decl.     Delta      r     Elong.  Phase     V
2000 09 13    03 45.27   -03 08.1    0.551    1.336   115.1    43.0    20.4
2000 09 23    03 35.27   -03 06.8    0.552    1.403   126.4    35.2    20.3
2000 10 03    03 19.28   -03 01.1    0.560    1.469   138.9    26.6    20.2
2000 10 13    02 58.97   -02 41.1    0.582    1.535   151.7    17.9    20.1
2000 10 23    02 37.25   -02 00.9    0.623    1.599   162.3    10.9    20.1
2000 11 02    02 17.36   -00 59.6    0.686    1.662   163.9     9.5    20.3
2000 11 12    02 01.72   +00 18.9    0.772    1.723   155.9    13.6    20.8
2000 11 22    01 51.29   +01 48.6    0.879    1.782   145.5    18.3    21.3
2000 12 02    01 45.94   +03 24.9    1.003    1.839   135.3    22.2    21.8

Gareth V. Williams           (C) Copyright 2000 MPC           M.P.E.C. 2000-R58

Read MPEC 2000-R57 Read MPEC 2000-R59


MPEC number:

Enter an MPEC number in one of the following forms:

  • 1997-B01 (the full form)
  • J97B01 (the packed version of the full form)
  • B01 (the abbreviated form)

Valid HTML 4.01!